Weather History for KRUT - November, 2011

Change the Weather History Date:

Thursday, November 10, 2011

  Actual Average Record
Temperature  
Mean Temperature 52 °F -  
Max Temperature 64 °F - 70 °F (1948)
Min Temperature 39 °F - 13 °F (1992)
Degree Days  
Heating Degree Days 13    
Month to date heating degree days 208  
Since 1 July heating degree days 844  
Cooling Degree Days 0    
Month to date cooling degree days 0  
Year to date cooling degree days 348  
Growing Degree Days 2 (Base 50)    
Moisture  
Dew Point 44 °F    
Average Humidity 69    
Maximum Humidity 86    
Minimum Humidity 52    
Precipitation  
Precipitation 0.00 in - 1.82 in (1990)
Month to date precipitation 0.00  
Year to date precipitation 30.37  
Sea Level Pressure  
Sea Level Pressure 29.80 in    
Wind  
Wind Speed 9 mph (ESE)    
Max Wind Speed 13 mph    
Max Gust Speed 18 mph    
Visibility 10 miles    
Events      
T = Trace of Precipitation, MM = Missing Value Source: NWS Daily Summary

Daily Weather History Graph

Daily Weather History Graph

Search for Another Location

Airport or City:

Trip Planner

Search our weather history database for the weather conditions in past years. The results will help you decide how hot, cold, wet, or windy it might be!

Date:

Astronomy

Nov. 10, 2011 Rise Set
Actual Time 6:38 AM EST 4:32 PM EST
Civil Twilight 6:08 AM EST 5:02 PM EST
Nautical Twilight 5:33 AM EST 5:36 PM EST
Astronomical Twilight 5:00 AM EST 6:10 PM EST
Moon 4:16 PM EST (11/10) 6:29 AM EST (11/10)
Length of Visible Light 10h 54m
Length of Day
9h 53m
Full, 100% of the Moon is Illuminated
Nov 10
Full
Nov 10
Full
Nov 18
Last Quarter
Nov 25
New
Dec 2
First Quarter

Hourly Weather History & Observations

Time (EST) Temp. Windchill Dew Point Humidity Pressure Visibility Wind Dir Wind Speed Gust Speed Precip Events Conditions
12:15 AM 51.8 °F - 42.8 °F 71% 29.98 in 10.0 mi SSE 10.4 mph - N/A   Clear
12:55 AM 51.8 °F - 42.8 °F 71% 29.97 in 10.0 mi SE 8.1 mph - N/A   Clear
1:15 AM 51.8 °F - 42.8 °F 71% 29.98 in 10.0 mi SSE 9.2 mph - N/A   Clear
1:35 AM 51.8 °F - 42.8 °F 71% 29.98 in 10.0 mi ESE 9.2 mph - N/A   Partly Cloudy
2:35 AM 51.8 °F - 42.8 °F 71% 29.97 in 10.0 mi SE 9.2 mph - N/A   Mostly Cloudy
2:55 AM 53.6 °F - 42.8 °F 67% 29.96 in 10.0 mi SE 8.1 mph - N/A   Overcast
3:15 AM 53.6 °F - 42.8 °F 67% 29.95 in 10.0 mi ESE 8.1 mph - N/A   Overcast
3:35 AM 53.6 °F - 42.8 °F 67% 29.95 in 10.0 mi ESE 9.2 mph - N/A   Overcast
4:15 AM 53.6 °F - 44.6 °F 72% 29.94 in 10.0 mi SE 12.7 mph - N/A   Mostly Cloudy
4:35 AM 51.8 °F - 42.8 °F 71% 29.93 in 10.0 mi SE 13.8 mph - N/A   Scattered Clouds
4:55 AM 51.8 °F - 44.6 °F 76% 29.92 in 10.0 mi ESE 12.7 mph - N/A   Clear
5:15 AM 51.8 °F - 44.6 °F 76% 29.91 in 10.0 mi SE 12.7 mph - N/A   Clear
5:55 AM 51.8 °F - 44.6 °F 76% 29.91 in 10.0 mi SE 11.5 mph - N/A   Clear
6:55 AM 51.8 °F - 44.6 °F 76% 29.92 in 10.0 mi SE 11.5 mph - N/A   Overcast
7:15 AM 53.6 °F - 44.6 °F 72% 29.92 in 10.0 mi SE 13.8 mph - N/A   Mostly Cloudy
7:35 AM 53.6 °F - 44.6 °F 72% 29.92 in 10.0 mi SSE 9.2 mph - N/A   Overcast
7:55 AM 53.6 °F - 46.4 °F 77% 29.92 in 10.0 mi SE 11.5 mph 16.1 mph N/A   Mostly Cloudy
8:15 AM 53.6 °F - 46.4 °F 77% 29.91 in 10.0 mi SE 13.8 mph - N/A   Partly Cloudy
8:35 AM 55.4 °F - 46.4 °F 72% 29.90 in 10.0 mi SSE 8.1 mph - N/A   Clear
9:35 AM 60.8 °F - 48.2 °F 63% 29.87 in 10.0 mi SSE 8.1 mph - N/A   Clear
9:55 AM 60.8 °F - 46.4 °F 59% 29.86 in 10.0 mi SSE 11.5 mph - N/A   Clear
10:35 AM 64.4 °F - 46.4 °F 52% 29.84 in 10.0 mi SSE 13.8 mph 20.7 mph N/A   Mostly Cloudy
10:55 AM 64.4 °F - 46.4 °F 52% 29.84 in 10.0 mi South 8.1 mph - N/A   Overcast
11:15 AM 62.6 °F - 44.6 °F 52% 29.82 in 10.0 mi South 10.4 mph - N/A   Mostly Cloudy
11:35 AM 64.4 °F - 44.6 °F 49% 29.80 in 10.0 mi SSE 6.9 mph - N/A   Partly Cloudy
11:55 AM 62.6 °F - 48.2 °F 59% 29.79 in 10.0 mi SE 12.7 mph - N/A   Mostly Cloudy
12:15 PM 62.6 °F - 48.2 °F 59% 29.78 in 10.0 mi SE 11.5 mph - N/A   Overcast
12:55 PM 62.6 °F - 48.2 °F 59% 29.76 in 10.0 mi SE 10.4 mph - N/A   Overcast
1:15 PM 62.6 °F - 46.4 °F 55% 29.75 in 10.0 mi SE 8.1 mph - N/A   Overcast
1:35 PM 62.6 °F - 48.2 °F 59% 29.74 in 10.0 mi ESE 8.1 mph - N/A   Overcast
1:55 PM 62.6 °F - 48.2 °F 59% 29.73 in 10.0 mi ESE 4.6 mph - N/A   Overcast
2:35 PM 62.6 °F - 48.2 °F 59% 29.71 in 10.0 mi West 3.5 mph - N/A   Mostly Cloudy
2:55 PM 62.6 °F - 48.2 °F 59% 29.70 in 10.0 mi Calm Calm - N/A   Mostly Cloudy
3:35 PM - - - N/A% 29.70 in 10.0 mi North 6.9 mph - N/A   Overcast
4:15 PM 57.2 °F - 48.2 °F 72% 29.71 in 10.0 mi NNW 5.8 mph - N/A   Overcast
4:35 PM 57.2 °F - 48.2 °F 72% 29.70 in 10.0 mi NNW 10.4 mph - N/A   Overcast
4:55 PM 57.2 °F - 48.2 °F 72% 29.71 in 10.0 mi NNW 4.6 mph - N/A   Overcast
5:15 PM - - - N/A% 29.70 in 10.0 mi NNW 12.7 mph 19.6 mph N/A   Overcast
5:55 PM 50.0 °F - 44.6 °F 82% 29.71 in 10.0 mi North 12.7 mph - N/A   Overcast
6:15 PM - - - N/A% 29.71 in 10.0 mi North 10.4 mph 16.1 mph N/A   Overcast
6:35 PM 46.4 °F 42.9 °F 42.8 °F 87% 29.71 in 10.0 mi North 6.9 mph - N/A   Overcast
6:55 PM 46.4 °F 42.4 °F 42.8 °F 87% 29.72 in 10.0 mi NW 8.1 mph - N/A   Overcast
7:15 PM 46.4 °F 44.3 °F 42.8 °F 87% 29.70 in 10.0 mi NW 4.6 mph - N/A   Overcast
7:35 PM 46.4 °F 44.3 °F 42.8 °F 87% 29.69 in 10.0 mi NW 4.6 mph - N/A   Overcast
7:55 PM 46.4 °F 41.9 °F 41.0 °F 81% 29.69 in 10.0 mi NW 9.2 mph - N/A   Overcast
8:15 PM 46.4 °F 42.4 °F 41.0 °F 81% 29.69 in 10.0 mi NW 8.1 mph - N/A   Overcast
8:35 PM 46.4 °F 42.4 °F 41.0 °F 81% 29.69 in 10.0 mi NW 8.1 mph - N/A   Overcast
8:55 PM 46.4 °F 42.4 °F 39.2 °F 76% 29.70 in 10.0 mi WNW 8.1 mph - N/A   Overcast
9:15 PM 44.6 °F 39.7 °F 39.2 °F 81% 29.69 in 9.0 mi NW 9.2 mph - N/A   Overcast
9:35 PM - - - N/A% 29.69 in 5.0 mi NW 10.4 mph 16.1 mph N/A   Overcast
9:55 PM 42.8 °F 37.5 °F 37.4 °F 81% 29.70 in 6.0 mi NW 9.2 mph - N/A   Overcast
10:15 PM - - - N/A% 29.70 in 10.0 mi NW 10.4 mph 21.9 mph N/A   Overcast
10:55 PM 39.2 °F 33.0 °F 35.6 °F 87% 29.66 in 10.0 mi NNW 9.2 mph 18.4 mph N/A   Mostly Cloudy
11:15 PM 39.2 °F 33.0 °F 35.6 °F 87% 29.65 in 10.0 mi NNW 9.2 mph - N/A   Overcast
11:35 PM 39.2 °F 32.5 °F 33.8 °F 81% 29.64 in 10.0 mi NW 10.4 mph - N/A   Overcast
11:55 PM 39.2 °F 35.0 °F 33.8 °F 81% 29.65 in 10.0 mi WNW 5.8 mph - N/A   Overcast